Location: Beekmeers
(50.8953°N, 3.6968°E)
Time: 02:36:20
(UTC+00:00)

Cosmos 1833 - Pass Details

Date: 23 May 2024
Orbit: 835 x 863 km, 70.9° (Epoch: 21 June)

Event Time Altitude Azimuth Distance (km) Brightness Sun altitude
Exits shadow 02:58:16 - 212° (SSW) 2,723 6.2 -6.5°
Reaches altitude 10° 02:58:58 10° 213° (SSW) 2,463 6.0 -6.4°
Maximum altitude 03:04:38 80° 301° (WNW) 859 4.3 -5.8°
Drops below altitude 10° 03:10:18 10° 29° (NNE) 2,463 8.1 -5.1°
Sets 03:12:45 0° 30° (NNE) 3,399 9.1 -4.8°
